Regional Weather Roundup
Issued by NWS

Home | Current Version | Previous Version | Text Only | Print | Product List | Glossary Off
Versions: 1 2 3 4 5 6 7 8 9 10 11 12 13 14 15 16 17 18 19 20 21 22 23 24 25 26 27 28 29 30 31 32 33 34 35 36 37 38 39 40 41 42 43 44 45 46 47 48 49 50

489
ASUS43 KFSD 232202
RWRSD

WEATHER ROUNDUP FOR SOUTH DAKOTA
NATIONAL WEATHER SERVICE SIOUX FALLS SD
400 PM CST THU FEB 23 2017

NOTE: "FAIR" INDICATES FEW OR NO CLOUDS BELOW 12,000 FEET WITH NO
SIGNIFICANT WEATHER AND/OR OBSTRUCTIONS TO VISIBILITY.


SDZ001>005-009-010-012>017-232300-
NORTHWEST AND NORTH CENTRAL SOUTH DAKOTA

CITY           SKY/WX    TMP DP  RH WIND       PRES   REMARKS
BUFFALO          N/A     30  24  78 NE15      29.87S WCI  19
FAITH            N/A     30  24  78 NE18      29.92S WCI  18
MOBRIDGE       CLOUDY    33  23  66 NE13G21   29.96R WCI  24
$$

SDZ012>016-024>037-041>051-057-063-072>074-232300-
SOUTHWEST AND SOUTH CENTRAL SOUTH DAKOTA

CITY           SKY/WX    TMP DP  RH WIND       PRES   REMARKS
RAPID CTY ARPT LGT SNOW  27  24  89 N15       29.87S VSB 3/4 WCI  15
PIERRE         CLOUDY    30  22  72 NE16      29.91F WCI  19
CUSTER         LGT SNOW  19  13  77 NE13      29.72S VSB 1   WCI   6
ELLSWORTH AFB  LGT SNOW  27  27 100 N10       29.88  FOG     WCI  17
PHILIP         MIX PCPN  31  23  72 NE20G26   29.90R WCI  19
PINE RIDGE     LGT SNOW  27  23  85 NE18      29.79R VSB 3/4 WCI  14
SPEARFISH      LGT SNOW  25  23  93 E10       29.87S WCI  15
WINNER         LGT SNOW  30  27  88 N23G31    29.82S VSB 1   WCI  17
$$

SDZ004>011-016>023-039-040-232300-
NORTHEAST SOUTH DAKOTA

CITY           SKY/WX    TMP DP  RH WIND       PRES   REMARKS
ABERDEEN       CLOUDY    28  20  71 NE23      29.99R WCI  14
WATERTOWN      CLOUDY    27  21  78 N22       29.91R WCI  13
BROOKINGS      MOSUNNY   29  23  78 NE16      29.87R WCI  17
SISSETON         N/A     30  24  78 NE17      29.98R WCI  18
$$

SDZ017-020-022-023-036>040-048>070-232300-
SOUTHEAST SOUTH DAKOTA

CITY           SKY/WX    TMP DP  RH WIND       PRES   REMARKS
SIOUX FALLS    SNOW      30  29  96 NE20      29.82F VSB 1/4 WCI  17
HURON          CLOUDY    31  23  72 NE20G25   29.91F WCI  19
CHAMBERLAIN    LGT SNOW  32  28  86 N18G24    29.86S WCI  20
MITCHELL       LGT SNOW  32  27  81 NE23      29.87F WCI  19
YANKTON        CLOUDY    32  27  80 N20G35    29.75R WCI  20
$$

ABBREVIATIONS USED IN REMARKS
   TC - TEMPERATURE IN CELSIUS
  WCI - WIND CHILL INDEX
   HX - HEAT INDEX
  VSB - VISIBILITY





USA.gov is the U.S. government's official web portal to all federal, state and local government web resources and services.